| time (UTC) | temp C | wind direction | speed KPH | gust KPH | rain 1hr cm | rain 24hr cm | rain mn cm | humidity % | barometer mb |
| 20260906224605 | 23 | 194 | 3.2 | 9.7 | 0.00 | 0.08 | 0.08 | 48 | 1021.7 |
| 20260906223103 | 23 | 0 | 0.0 | 1.6 | 0.00 | 0.08 | 0.08 | 48 | 1021.4 |
| 20260906221606 | 23 | 0 | 0.0 | 1.6 | 0.00 | 0.08 | 0.08 | 47 | 1021.5 |
| 20260906220106 | 23 | 237 | 0.0 | 1.6 | 0.00 | 0.08 | 0.08 | 47 | 1021.4 |
| 20260906214605 | 23 | 0 | 0.0 | 3.2 | 0.05 | 0.08 | 0.08 | 47 | 1021.7 |
| 20260906213103 | 24 | 0 | 0.0 | 1.6 | 0.08 | 0.08 | 0.08 | 50 | 1021.9 |
| 20260906211611 | 23 | 0 | 0.0 | 3.2 | 0.08 | 0.08 | 0.08 | 53 | 1022.0 |
| 20260906210105 | 22 | 178 | 0.0 | 3.2 | 0.08 | 0.08 | 0.08 | 63 | 1022.3 |
| 20260906204644 | 23 | 69 | 0.0 | 6.4 | 0.03 | 0.03 | 0.03 | 50 | 1022.5 |
| 20260906203108 | 23 | 0 | 0.0 | 6.4 | 0.00 | 0.00 | 0.00 | 42 | 1022.5 |
| 20260906201646 | 24 | 77 | 0.0 | 9.7 | 0.00 | 0.00 | 0.00 | 39 | 1022.6 |
| 20260906200105 | 25 | 62 | 3.2 | 12.9 | 0.00 | 0.00 | 0.00 | 38 | 1022.4 |
| 20260906194607 | 26 | 343 | 6.4 | 19.3 | 0.00 | 0.00 | 0.00 | 37 | 1022.4 |
| 20260906193110 | 26 | 44 | 4.8 | 12.9 | 0.00 | 0.00 | 0.00 | 36 | 1022.5 |
| 20260906191622 | 25 | 356 | 11.3 | 19.3 | 0.00 | 0.00 | 0.00 | 38 | 1022.7 |
| 20260906190109 | 25 | 20 | 8.0 | 16.1 | 0.00 | 0.00 | 0.00 | 38 | 1022.8 |
| 20260906184603 | 25 | 86 | 8.0 | 19.3 | 0.00 | 0.00 | 0.00 | 37 | 1022.9 |
| 20260906183104 | 25 | 4 | 8.0 | 17.7 | 0.00 | 0.00 | 0.00 | 36 | 1023.1 |
| 20260906181607 | 24 | 44 | 6.4 | 19.3 | 0.00 | 0.00 | 0.00 | 38 | 1023.5 |
| 20260906180104 | 24 | 30 | 6.4 | 14.5 | 0.00 | 0.00 | 0.00 | 41 | 1023.8 |
| 20260906174613 | 23 | 347 | 4.8 | 12.9 | 0.00 | 0.00 | 0.00 | 45 | 1024.0 |
| 20260906173108 | 22 | 50 | 6.4 | 17.7 | 0.00 | 0.00 | 0.00 | 46 | 1024.2 |
| 20260906171606 | 23 | 92 | 4.8 | 12.9 | 0.00 | 0.00 | 0.00 | 46 | 1024.5 |
| 20260906170114 | 22 | 37 | 3.2 | 12.9 | 0.00 | 0.00 | 0.00 | 45 | 1024.5 |
| 20260906164604 | 22 | 360 | 4.8 | 11.3 | 0.00 | 0.00 | 0.00 | 43 | 1024.6 |
| 20260906163105 | 21 | 51 | 4.8 | 9.7 | 0.00 | 0.00 | 0.00 | 49 | 1024.6 |
| 20260906161607 | 21 | 20 | 6.4 | 12.9 | 0.00 | 0.00 | 0.00 | 54 | 1024.5 |
| 20260906160107 | 21 | 49 | 4.8 | 12.9 | 0.00 | 0.00 | 0.00 | 50 | 1024.5 |
| 20260906154614 | 21 | 34 | 6.4 | 11.3 | 0.00 | 0.00 | 0.00 | 47 | 1024.2 |
| 20260906153125 | 21 | 25 | 3.2 | 6.4 | 0.00 | 0.00 | 0.00 | 48 | 1024.3 |
| 20260906151606 | 20 | 65 | 3.2 | 8.0 | 0.00 | 0.00 | 0.00 | 52 | 1024.4 |
| 20260906150106 | 19 | 35 | 1.6 | 8.0 | 0.00 | 0.00 | 0.00 | 53 | 1024.5 |
| 20260906144617 | 18 | 30 | 0.0 | 8.0 | 0.00 | 0.00 | 0.00 | 56 | 1024.4 |
| 20260906143106 | 18 | 23 | 4.8 | 8.0 | 0.00 | 0.00 | 0.00 | 54 | 1024.4 |
| 20260906141618 | 20 | 41 | 3.2 | 4.8 | 0.00 | 0.00 | 0.00 | 43 | 1024.1 |
| 20260906140110 | 20 | 68 | 0.0 | 3.2 | 0.00 | 0.00 | 0.00 | 44 | 1023.9 |
| 20260906134634 | 19 | 0 | 0.0 | 1.6 | 0.00 | 0.00 | 0.00 | 43 | 1023.9 |
| 20260906133107 | 17 | 345 | 1.6 | 4.8 | 0.00 | 0.00 | 0.00 | 55 | 1023.9 |
| 20260906131606 | 16 | 0 | 0.0 | 0.0 | 0.00 | 0.00 | 0.00 | 62 | 1024.0 |
| 20260906130108 | 16 | 0 | 0.0 | 0.0 | 0.00 | 0.00 | 0.00 | 66 | 1024.0 |
| 20260906124608 | 15 | 0 | 0.0 | 0.0 | 0.00 | 0.00 | 0.00 | 68 | 1023.9 |
| 20260906123108 | 14 | 0 | 0.0 | 0.0 | 0.00 | 0.00 | 0.00 | 67 | 1023.7 |
| 20260906121607 | 15 | 0 | 0.0 | 0.0 | 0.00 | 0.00 | 0.00 | 60 | 1023.6 |
| 20260906120109 | 15 | 0 | 0.0 | 0.0 | 0.00 | 0.00 | 0.00 | 53 | 1023.6 |
| 20260906114633 | 15 | 0 | 0.0 | 0.0 | 0.00 | 0.00 | 0.00 | 50 | 1023.6 |
| 20260906113101 | 15 | 0 | 0.0 | 3.2 | 0.00 | 0.00 | 0.00 | 51 | 1023.5 |
| 20260906111626 | 15 | 0 | 0.0 | 1.6 | 0.00 | 0.00 | 0.00 | 52 | 1023.5 |
| 20260906104607 | 15 | 0 | 0.0 | 1.6 | 0.00 | 0.00 | 0.00 | 61 | 1023.6 |
| 20260906103111 | 15 | 0 | 0.0 | 1.6 | 0.00 | 0.00 | 0.00 | 61 | 1023.7 |
| 20260906101604 | 16 | 0 | 0.0 | 0.0 | 0.00 | 0.00 | 0.00 | 55 | 1023.7 |
| 20260906094604 | 17 | 0 | 0.0 | 1.6 | 0.00 | 0.00 | 0.00 | 48 | 1023.5 |
| 20260906093108 | 18 | 0 | 0.0 | 1.6 | 0.00 | 0.00 | 0.00 | 47 | 1023.7 |
| 20260906091612 | 18 | 193 | 3.2 | 6.4 | 0.00 | 0.00 | 0.00 | 48 | 1023.7 |
| 20260906090116 | 17 | 0 | 0.0 | 1.6 | 0.00 | 0.00 | 0.00 | 50 | 1023.7 |
| 20260906084611 | 17 | 0 | 0.0 | 1.6 | 0.00 | 0.00 | 0.00 | 49 | 1023.5 |
| 20260906083106 | 18 | 0 | 0.0 | 1.6 | 0.00 | 0.00 | 0.00 | 47 | 1023.4 |
| 20260906081607 | 18 | 0 | 0.0 | 4.8 | 0.00 | 0.00 | 0.00 | 48 | 1023.5 |
| 20260906080104 | 18 | 0 | 0.0 | 3.2 | 0.00 | 0.00 | 0.00 | 48 | 1023.6 |
| 20260906074611 | 18 | 0 | 0.0 | 1.6 | 0.00 | 0.00 | 0.00 | 48 | 1023.7 |
| 20260906073110 | 18 | 0 | 0.0 | 3.2 | 0.00 | 0.00 | 0.00 | 47 | 1023.8 |
| 20260906071609 | 19 | 0 | 0.0 | 4.8 | 0.00 | 0.00 | 0.00 | 45 | 1023.9 |
| 20260906070135 | 20 | 0 | 0.0 | 6.4 | 0.00 | 0.00 | 0.00 | 43 | 1023.8 |
| 20260906064602 | 20 | 0 | 0.0 | 4.8 | 0.00 | 0.00 | 0.00 | 42 | 1023.8 |
| 20260906063108 | 20 | 207 | 0.0 | 4.8 | 0.00 | 0.00 | 0.00 | 41 | 1023.7 |
| 20260906061635 | 21 | 188 | 1.6 | 14.5 | 0.00 | 0.00 | 0.00 | 41 | 1023.9 |
| 20260906060109 | 21 | 214 | 3.2 | 9.7 | 0.00 | 0.00 | 0.00 | 39 | 1023.8 |
| 20260906054602 | 21 | 0 | 0.0 | 4.8 | 0.00 | 0.00 | 0.00 | 38 | 1024.3 |
| 20260906053101 | 22 | 63 | 3.2 | 6.4 | 0.00 | 0.00 | 0.00 | 37 | 1024.6 |
| 20260906051606 | 22 | 0 | 3.2 | 17.7 | 0.00 | 0.00 | 0.00 | 37 | 1024.6 |
| 20260906050116 | 22 | 207 | 8.0 | 16.1 | 0.00 | 0.00 | 0.00 | 35 | 1023.9 |
| 20260906044603 | 22 | 212 | 4.8 | 16.1 | 0.00 | 0.00 | 0.00 | 35 | 1023.8 |
| 20260906043112 | 22 | 222 | 4.8 | 19.3 | 0.00 | 0.00 | 0.00 | 36 | 1023.7 |
| 20260906041608 | 22 | 239 | 4.8 | 17.7 | 0.00 | 0.00 | 0.00 | 36 | 1023.6 |
| 20260906040119 | 22 | 264 | 6.4 | 32.2 | 0.00 | 0.00 | 0.00 | 36 | 1023.6 |
| 20260906034602 | 22 | 211 | 12.9 | 25.7 | 0.00 | 0.00 | 0.00 | 33 | 1023.6 |
| 20260906033108 | 22 | 215 | 1.6 | 8.0 | 0.00 | 0.00 | 0.00 | 32 | 1023.4 |
| 20260906031618 | 22 | 221 | 1.6 | 9.7 | 0.00 | 0.00 | 0.00 | 32 | 1023.4 |
| 20260906030113 | 22 | 224 | 1.6 | 17.7 | 0.00 | 0.00 | 0.00 | 33 | 1023.1 |
| 20260906024607 | 22 | 251 | 9.7 | 19.3 | 0.00 | 0.00 | 0.00 | 34 | 1023.0 |
| 20260906023132 | 22 | 239 | 4.8 | 17.7 | 0.00 | 0.00 | 0.00 | 34 | 1022.9 |
| 20260906021608 | 22 | 217 | 4.8 | 17.7 | 0.00 | 0.00 | 0.00 | 35 | 1022.9 |
| 20260906020107 | 23 | 234 | 1.6 | 6.4 | 0.00 | 0.00 | 0.00 | 32 | 1022.8 |
| 20260906014629 | 23 | 205 | 8.0 | 17.7 | 0.00 | 0.00 | 0.00 | 31 | 1023.3 |
| 20260906013103 | 23 | 245 | 6.4 | 17.7 | 0.00 | 0.00 | 0.00 | 33 | 1023.0 |
| 20260906011608 | 23 | 199 | 6.4 | 14.5 | 0.00 | 0.00 | 0.00 | 32 | 1022.8 |
| 20260906010111 | 23 | 192 | 6.4 | 14.5 | 0.00 | 0.00 | 0.00 | 32 | 1022.8 |
| 20260906004614 | 23 | 214 | 4.8 | 9.7 | 0.00 | 0.00 | 0.00 | 32 | 1023.1 |
| 20260906003109 | 24 | 0 | 0.0 | 8.0 | 0.00 | 0.00 | 0.00 | 31 | 1023.1 |
| 20260906001602 | 24 | 195 | 3.2 | 11.3 | 0.00 | 0.00 | 0.00 | 31 | 1023.0 |
| 20260906000111 | 25 | 211 | 3.2 | 12.9 | 0.00 | 0.00 | 0.00 | 30 | 1023.0 |
| 20260905234605 | 26 | 233 | 3.2 | 16.1 | 0.00 | 0.00 | 0.00 | 28 | 1022.8 |
| 20260905233106 | 25 | 73 | 3.2 | 9.7 | 0.00 | 0.00 | 0.00 | 26 | 1022.9 |
| 20260905231607 | 26 | 204 | 0.0 | 8.0 | 0.00 | 0.00 | 0.00 | 26 | 1022.7 |
| 20260905230110 | 26 | 160 | 3.2 | 9.7 | 0.00 | 0.00 | 0.00 | 24 | 1022.4 |